Location: Golden Pond Observatory
(36.7773°N, 88.0631°W)
Time: 02:18:47
(UTC-05:00)

OTV 5 (USA 277) - Visible Passes

Search period start: 23 March 2019 00:00
Search period end: 02 April 2019 00:00
Orbit: 315 x 320 km, 54.5° (Epoch: 14 March)

Date Brightness Start Highest point End Pass type
(mag) Time Alt. Az. Time Alt. Az. Time Alt. Az.
29 Mar ? 05:43:42 10° SSE 05:45:07 13° SE 05:46:31 10° E visible
30 Mar ? 05:57:03 10° SSW 05:59:37 42° SE 06:02:13 10° ENE visible
31 Mar ? 06:11:39 10° WSW 06:14:17 49° NW 06:16:56 10° NE visible
01 Apr ? 04:54:56 23° ESE 04:54:56 23° ESE 04:57:02 10° ENE visible
